Waarnemingen

Advertentie
Mijn weer
Andernach, Duitsland (10520): temperatuur & dauwpunt: 15.01.2017 01:00:00 - 21.01.2017 01:00:00 (CET)Andernach, Duitsland (10520): temperatuur 5cm & temperatuur -5cm: 15.01.2017 01:00:00 - 21.01.2017 01:00:00 (CET)Andernach, Duitsland (10520): temperatuur -20cm & temperatuur -100cm: 15.01.2017 01:00:00 - 21.01.2017 01:00:00 (CET)Andernach, Duitsland (10520): windsnelheid & windstoten: 15.01.2017 01:00:00 - 21.01.2017 01:00:00 (CET)Andernach, Duitsland (10520): windrichting: 15.01.2017 01:00:00 - 21.01.2017 01:00:00 (CET)Andernach, Duitsland (10520): luchtdruk: 15.01.2017 01:00:00 - 21.01.2017 01:00:00 (CET)Andernach, Duitsland (10520): zicht: 15.01.2017 01:00:00 - 21.01.2017 01:00:00 (CET)Andernach, Duitsland (10520): Zonneschijnduur: 15.01.2017 01:00:00 - 21.01.2017 01:00:00 (CET)Andernach, Duitsland (10520): neerslag: 15.01.2017 01:00:00 - 21.01.2017 01:00:00 (CET)
Datum & Tijd tt [°C] td [°C] tt 5cm [°C] tt -5cm [°C] tt -20cm [°C] tt -100cm [°C] ff [km/u] ff [kn] fx [km/u] fx [kn] dd ppp [hPa] vv [km] sd [min] rr [mm]
21.01.2017 01:00:00 - - - - - - - - - - - - - - -
21.01.2017 00:00:00 -7,6 -9,8 -10,4 -1,7 0,3 5,0 6 3 8 5 ZZW 1033,5 15 0 0,0
20.01.2017 23:00:00 -6,7 -9,3 -9,0 -1,2 0,3 5,0 8 4 10 5 Z 1033,6 15 0 0,0
20.01.2017 22:00:00 -6,3 -8,8 -8,2 -0,6 0,3 5,0 8 4 9 5 ZZW 1033,7 14 0 0,0
20.01.2017 21:00:00 -5,4 -8,2 -8,7 -0,3 0,3 5,0 5 3 8 4 ZZW 1033,8 13 0 0,0
20.01.2017 20:00:00 -4,3 -7,4 -6,7 -0,3 0,3 5,0 6 3 8 5 ZZW 1033,7 12 0 0,0
20.01.2017 19:00:00 -2,8 -6,7 -6,0 -0,3 0,3 5,0 6 3 8 5 ZZW 1033,7 12 0 0,0
20.01.2017 18:00:00 -1,6 -5,8 -6,3 -0,4 0,3 5,0 3 2 6 3 ONO 1033,6 22 0 0,0
20.01.2017 17:00:00 1,1 -6,5 -3,7 -0,4 0,3 5,0 3 2 6 3 ZO 1033,5 29 50 0,0
20.01.2017 16:00:00 2,3 -8,1 1,8 -0,5 0,3 5,0 3 2 7 4 ZZO 1033,5 34 60 0,0
20.01.2017 15:00:00 1,9 -8,9 2,8 -0,7 0,3 5,0 3 1 6 4 ZO 1033,8 26 60 0,0
20.01.2017 14:00:00 0,1 -7,4 1,7 -0,9 0,3 5,0 4 2 8 5 ZZO 1034,6 15 60 0,0
20.01.2017 13:00:00 -1,8 -7,4 0,2 -1,2 0,3 5,0 3 2 6 3 ZZO 1035,3 14 60 0,0
20.01.2017 12:00:00 -4,2 -8,0 -2,6 -1,8 0,3 5,0 4 2 8 4 Z 1036,0 14 60 0,0
20.01.2017 11:00:00 -6,0 -9,1 -5,1 -2,8 0,3 5,0 3 2 5 3 ZZW 1036,8 14 60 0,0
20.01.2017 10:00:00 -7,9 -10,4 -8,3 -3,6 0,3 5,0 3 2 7 4 Z 1036,9 13 60 0,0
20.01.2017 09:00:00 -10,8 -12,5 -11,8 -3,7 0,3 5,0 5 3 7 4 ZZW 1037,1 16 3 0,0
20.01.2017 08:00:00 -11,1 -12,3 -14,5 -3,6 0,3 5,0 3 1 8 4 ZZW 1036,8 15 0 0,0
20.01.2017 07:00:00 -10,8 -12,1 -13,9 -3,5 0,4 5,0 5 3 8 5 Z 1036,6 17 0 0,0
20.01.2017 06:00:00 -10,8 -12,3 -12,3 -3,3 0,4 5,0 6 3 8 4 ZZW 1036,6 18 0 0,0
20.01.2017 05:00:00 -10,6 -11,9 -13,1 -3,1 0,4 5,0 5 3 8 4 ZZW 1036,8 17 0 0,0
20.01.2017 04:00:00 -10,3 -11,7 -12,3 -2,9 0,4 5,1 5 3 7 4 ZZW 1036,8 16 0 0,0
20.01.2017 03:00:00 -9,9 -10,9 -13,4 -2,7 0,4 5,0 2 1 9 5 ZZW 1036,8 13 0 0,0
20.01.2017 02:00:00 -9,4 -10,9 -11,6 -2,5 0,4 5,1 5 3 9 5 ZZW 1036,5 13 0 0,0
20.01.2017 01:00:00 -9,0 -10,5 -11,9 -2,2 0,5 5,1 5 3 9 5 ZZW 1036,9 12 0 0,0
20.01.2017 00:00:00 -8,5 -10,2 -10,0 -1,8 0,5 5,1 6 3 9 5 ZZW 1037,4 12 0 0,0
19.01.2017 23:00:00 -7,8 -9,6 -9,5 -1,3 0,5 5,1 5 3 8 4 ZZW 1037,6 10 0 0,0
19.01.2017 22:00:00 -6,9 -9,1 -8,9 -0,7 0,5 5,1 8 4 10 5 ZZW 1037,5 12 0 0,0
19.01.2017 21:00:00 -6,4 -8,4 -10,5 -0,3 0,5 5,1 4 2 8 5 ZZW 1037,3 11 0 0,0
19.01.2017 20:00:00 -4,9 -7,7 -7,2 -0,2 0,5 5,1 4 2 9 5 ZW 1037,2 11 0 0,0
19.01.2017 19:00:00 -3,6 -6,9 -6,4 -0,2 0,5 5,1 3 1 6 3 W 1036,9 12 0 0,0
19.01.2017 18:00:00 -2,4 -6,4 -7,1 -0,3 0,5 5,1 4 2 7 4 ZZW 1036,8 18 0 0,0
19.01.2017 17:00:00 -0,2 -7,0 -4,7 -0,3 0,5 5,1 2 1 6 3 ZW 1036,5 21 48 0,0
19.01.2017 16:00:00 0,9 -6,9 0,1 -0,4 0,5 5,1 4 2 9 5 ZZW 1036,6 22 60 0,0
19.01.2017 15:00:00 0,4 -7,4 1,9 -0,4 0,5 5,1 5 3 10 5 WZW 1036,9 19 60 0,0
19.01.2017 14:00:00 -0,1 -7,4 0,8 -0,6 0,5 5,1 3 2 8 5 Z 1037,1 18 60 0,0
19.01.2017 13:00:00 -1,4 -6,3 -0,4 -0,8 0,5 5,1 6 3 10 5 Z 1037,9 12 60 0,0
19.01.2017 12:00:00 -3,5 -7,3 -2,4 -1,1 0,5 5,1 4 2 8 4 Z 1038,5 11 60 0,0
19.01.2017 11:00:00 -5,4 -8,5 -4,9 -1,8 0,5 5,1 2 1 6 4 O 1039,2 9 60 0,0
19.01.2017 10:00:00 -7,1 -9,1 -7,6 -2,4 0,5 5,1 3 1 7 4 Z 1039,2 9 55 0,0
19.01.2017 09:00:00 -9,9 -11,3 -11,0 -2,5 0,5 5,1 5 3 8 4 ZZW 1039,0 10 0 0,0
19.01.2017 08:00:00 -10,0 -11,4 -11,7 -2,3 0,6 5,1 6 3 7 4 ZZW 1038,7 11 0 0,0
19.01.2017 07:00:00 -10,0 -11,3 -13,0 -2,2 0,6 5,1 4 2 6 3 ZZW 1038,8 12 0 0,0
19.01.2017 06:00:00 -9,6 -10,9 -11,7 -2,0 0,6 5,1 5 3 9 5 ZZW 1038,6 11 0 0,0
19.01.2017 05:00:00 -9,7 -11,0 -11,1 -1,8 0,6 5,1 6 4 8 4 ZZW 1038,7 13 0 0,0
19.01.2017 04:00:00 -9,5 -10,7 -11,4 -1,6 0,6 5,1 5 3 9 5 ZZW 1038,7 11 0 0,0
19.01.2017 03:00:00 -9,1 -10,3 -10,4 -1,4 0,7 5,1 7 4 9 5 ZZW 1038,8 11 0 0,0
19.01.2017 02:00:00 -8,8 -9,9 -10,4 -1,2 0,7 5,1 6 4 8 4 ZZW 1038,7 10 0 0,0
19.01.2017 01:00:00 -8,3 -9,5 -10,2 -1,0 0,7 5,1 6 3 10 5 ZZW 1038,7 10 0 0,0
19.01.2017 00:00:00 -8,0 -9,2 -9,7 -0,8 0,7 5,1 6 4 9 5 ZZW 1038,7 10 0 0,0
18.01.2017 23:00:00 -7,3 -8,5 -9,4 -0,4 0,7 5,1 5 3 9 5 ZW 1038,9 8 0 0,0
18.01.2017 22:00:00 -6,4 -7,8 -9,2 -0,1 0,7 5,1 3 1 8 4 ZW 1038,7 10 0 0,0
18.01.2017 21:00:00 -5,3 -6,8 -8,8 -0,1 0,7 5,1 5 3 9 5 ZZW 1038,7 10 0 0,0
18.01.2017 20:00:00 -4,0 -6,0 -8,5 -0,1 0,7 5,1 4 2 9 5 ZW 1038,7 13 0 0,0
18.01.2017 19:00:00 -2,2 -5,4 -5,4 -0,1 0,7 5,2 6 3 15 8 NW 1038,5 21 0 0,0
18.01.2017 18:00:00 -1,5 -5,5 -3,5 -0,1 0,7 5,2 10 6 16 8 NNW 1038,5 21 0 0,0
18.01.2017 17:00:00 -0,7 -5,4 -2,0 -0,1 0,7 5,2 7 4 17 9 NNW 1038,4 26 33 0,0
18.01.2017 16:00:00 -0,7 -5,5 -0,3 -0,2 0,7 5,2 8 5 16 8 NNW 1038,6 25 56 0,0
18.01.2017 15:00:00 0,0 -7,1 0,9 -0,2 0,7 5,2 9 5 16 9 ONO 1038,4 35 60 0,0
18.01.2017 14:00:00 -1,3 -6,4 1,5 -0,2 0,8 5,2 6 4 12 6 NW 1038,8 25 60 0,0
18.01.2017 13:00:00 -2,0 -7,4 -0,8 -0,3 0,8 5,2 3 1 8 5 N 1039,4 21 60 0,0
18.01.2017 12:00:00 -3,8 -7,0 -1,8 -0,4 0,8 5,2 8 4 11 6 NW 1040,2 16 60 0,0
18.01.2017 11:00:00 -4,8 -7,4 -4,0 -0,7 0,8 5,2 3 2 7 4 W 1040,2 12 60 0,0
18.01.2017 10:00:00 -7,9 -9,4 -8,0 -0,9 0,8 5,2 4 2 9 5 ZW 1040,3 11 7 0,0
18.01.2017 09:00:00 -8,7 -9,9 -11,2 -0,8 0,8 5,2 3 2 10 5 WZW 1040,4 12 0 0,0
18.01.2017 08:00:00 -7,7 -8,8 -10,1 -0,7 0,8 5,2 7 4 13 7 NW 1040,0 9 0 0,0
18.01.2017 07:00:00 -7,5 -8,4 -9,6 -0,5 0,9 5,2 7 4 16 9 NW 1039,5 9 0 0,0
18.01.2017 06:00:00 -7,2 -8,4 -9,2 -0,4 0,9 5,2 9 5 14 8 NW 1039,5 10 0 0,0
18.01.2017 05:00:00 -7,0 -8,1 -9,1 -0,3 0,9 5,2 9 5 14 8 NW 1039,3 9 0 0,0
18.01.2017 04:00:00 -8,1 -9,2 -10,7 -0,2 0,9 5,2 4 2 10 5 NW 1039,3 10 0 0,0
18.01.2017 03:00:00 -8,7 -10,1 -10,1 -0,1 0,9 5,2 4 2 11 6 ZW 1039,4 12 0 0,0
18.01.2017 02:00:00 -7,6 -9,1 -9,3 0,0 0,9 5,2 5 3 14 8 WNW 1039,4 11 0 0,0
18.01.2017 01:00:00 -6,8 -8,2 -9,2 0,0 0,9 5,2 5 3 15 8 W 1039,2 11 0 0,0
18.01.2017 00:00:00 -7,0 -8,5 -9,0 0,1 1,0 5,2 5 3 16 9 W 1039,0 10 0 0,0
17.01.2017 23:00:00 -5,1 -6,5 -7,6 0,1 1,0 5,2 8 4 13 7 NNW 1038,8 11 0 0,0
17.01.2017 22:00:00 -5,8 -7,2 -8,3 0,1 1,0 5,2 5 3 9 5 WNW 1038,9 8 0 0,0
17.01.2017 21:00:00 -5,7 -7,1 -7,7 0,2 1,0 5,2 5 3 10 5 ZW 1038,5 9 0 0,0
17.01.2017 20:00:00 -3,2 -5,3 -5,4 0,2 1,0 5,2 8 4 12 7 NNW 1038,4 15 0 0,0
17.01.2017 19:00:00 -2,9 -4,9 -6,0 0,2 1,0 5,2 4 2 16 8 NNW 1038,0 16 0 0,0
17.01.2017 18:00:00 -2,0 -4,8 -4,4 0,2 1,0 5,2 9 5 14 8 NNW 1037,6 20 0 0,0
17.01.2017 17:00:00 -1,5 -4,8 -3,3 0,2 1,0 5,2 10 5 20 11 NNW 1037,0 23 24 0,0
17.01.2017 16:00:00 -1,2 -4,6 -1,1 0,2 1,0 5,2 11 6 22 12 NNW 1037,0 24 0 0,0
17.01.2017 15:00:00 -1,1 -4,8 -0,7 0,2 1,0 5,2 11 6 23 12 NW 1036,8 25 16 0,0
17.01.2017 14:00:00 -1,2 -5,1 1,5 0,2 1,0 5,2 13 7 24 13 NW 1036,9 21 53 0,0
17.01.2017 13:00:00 -2,1 -5,3 -0,5 0,2 1,0 5,2 16 9 29 15 NNW 1037,4 23 0 0,0
17.01.2017 12:00:00 -2,1 -5,8 -0,9 0,2 1,0 5,2 12 7 18 10 NNW 1037,3 29 4 0,0
17.01.2017 11:00:00 -2,8 -6,0 -1,4 0,2 1,0 5,2 10 5 23 12 NNW 1037,3 21 57 0,0
17.01.2017 10:00:00 -3,6 -6,3 -3,5 0,2 1,0 5,2 10 5 18 10 NNW 1036,9 21 30 0,0
17.01.2017 09:00:00 -3,8 -6,2 -4,3 0,2 1,0 5,2 6 3 19 10 NW 1036,4 24 0 0,0
17.01.2017 08:00:00 -4,2 -6,6 -4,7 0,2 1,0 5,2 10 5 16 8 NNW 1036,4 18 0 0,0
17.01.2017 07:00:00 -4,3 -6,6 -5,2 0,2 1,0 5,2 5 3 18 10 NNW 1035,8 19 0 0,0
17.01.2017 06:00:00 -4,5 -6,6 -5,4 0,2 1,1 5,2 10 5 15 8 NNW 1035,3 18 0 0,0
17.01.2017 05:00:00 -4,5 -6,0 -4,7 0,2 1,1 5,2 6 3 10 5 NNW 1035,1 14 0 0,0
17.01.2017 04:00:00 -5,1 -7,0 -5,2 0,3 1,1 5,2 4 2 6 4 N 1035,0 18 0 0,0
17.01.2017 03:00:00 -6,7 -7,6 -6,5 0,3 1,1 5,2 4 2 6 3 ZZO 1034,8 10 0 0,0
17.01.2017 02:00:00 -7,5 -8,4 -10,2 0,3 1,1 5,3 6 3 8 5 ZZW 1033,8 12 0 0,0
17.01.2017 01:00:00 -7,1 -7,8 -10,9 0,3 1,1 5,3 4 2 9 5 ZW 1033,3 9 0 0,0
17.01.2017 00:00:00 -6,4 -7,3 -9,0 0,3 1,1 5,3 6 3 11 6 ZZW 1032,8 10 0 0,0
16.01.2017 23:00:00 -5,9 -6,8 -7,9 0,4 1,1 5,3 7 4 9 5 ZZW 1032,4 11 0 0,0
16.01.2017 22:00:00 -5,2 -6,1 -7,3 0,4 1,1 5,3 6 3 8 5 ZZW 1031,6 11 0 0,0
16.01.2017 21:00:00 -4,4 -5,4 -8,4 0,4 1,1 5,3 4 2 9 5 ZZW 1030,9 12 0 0,0
16.01.2017 20:00:00 -3,6 -5,1 -7,2 0,4 1,1 5,3 5 3 8 4 ZZW 1030,3 15 0 0,0
16.01.2017 19:00:00 -2,1 -3,7 -6,2 0,5 1,1 5,3 3 2 9 5 NNW 1029,5 21 0 0,0
16.01.2017 18:00:00 -0,6 -4,1 -4,3 0,5 1,2 5,3 8 4 10 6 NNW 1028,8 21 0 0,0
16.01.2017 17:00:00 0,2 -4,1 -2,9 0,5 1,2 5,3 7 4 18 10 N 1028,5 33 39 0,0
16.01.2017 16:00:00 1,2 -3,9 0,3 0,5 1,2 5,3 9 5 18 10 N 1027,9 47 52 0,0
16.01.2017 15:00:00 1,7 -5,9 1,4 0,5 1,2 5,3 0 0 10 5 N 1027,3 56 27 0,0
16.01.2017 14:00:00 2,5 -3,8 3,4 0,5 1,2 5,3 0 0 9 5 N 1027,1 39 58 0,0
16.01.2017 13:00:00 1,1 -3,8 1,9 0,5 1,2 5,3 4 2 16 9 O 1027,2 24 42 0,0
16.01.2017 12:00:00 0,2 -2,6 0,0 0,5 1,2 5,3 10 5 16 8 O 1027,3 17 0 0,0
16.01.2017 11:00:00 -0,4 -1,1 -0,7 0,5 1,2 5,3 4 2 8 4 ZO 1027,0 3,3 1 0,0
16.01.2017 10:00:00 -0,2 -0,6 -0,4 0,5 1,2 5,3 2 1 6 3 ZZO 1026,4 4,0 0 0,0
16.01.2017 09:00:00 -0,9 -1,2 -5,3 0,5 1,2 5,3 2 1 8 4 ZW 1025,9 3,6 0 0,0
16.01.2017 08:00:00 -0,7 -0,7 -0,9 0,5 1,2 5,3 3 1 4 2 ZZO 1025,5 3,0 0 0,0
16.01.2017 07:00:00 -0,8 -0,8 -0,9 0,5 1,2 5,3 2 1 14 8 N 1024,8 1,9 0 0,6
16.01.2017 06:00:00 -0,7 -0,9 -0,9 0,5 1,2 5,3 2 1 4 2 ONO 1024,4 5 0 0,0
16.01.2017 05:00:00 -0,7 -0,8 -0,8 0,5 1,2 5,3 2 1 5 3 ZZO 1024,4 4,5 0 0,0
16.01.2017 04:00:00 -0,7 -0,7 -0,9 0,5 1,2 5,3 3 1 9 5 ZO 1024,1 3,1 0 0,0
16.01.2017 03:00:00 -0,5 -1,2 -1,4 0,5 1,3 5,3 4 2 8 4 ZW 1023,9 12 0 0,0
16.01.2017 02:00:00 0,3 -0,4 -1,1 0,5 1,3 5,3 4 2 9 5 ONO 1023,9 11 0 0,0
16.01.2017 01:00:00 0,0 -0,7 -3,3 0,5 1,3 5,3 5 3 9 5 W 1023,7 10 0 0,0
16.01.2017 00:00:00 -0,3 -1,0 -0,7 0,6 1,3 5,3 3 2 9 5 ZZW 1024,0 15 0 0,0
15.01.2017 23:00:00 -0,5 -1,5 -0,9 0,6 1,3 5,3 4 2 8 4 Z 1023,7 15 0 0,1
15.01.2017 22:00:00 -0,6 -1,8 -1,1 0,6 1,3 5,3 2 1 6 3 Z 1023,4 15 0 0,0
15.01.2017 21:00:00 -1,1 -2,4 -1,9 0,6 1,4 5,3 5 3 9 5 ZW 1023,0 17 0 0,0
15.01.2017 20:00:00 -1,3 -2,9 -3,3 0,7 1,4 5,3 6 3 9 5 Z 1022,9 22 0 0,0
15.01.2017 19:00:00 -0,9 -2,0 -3,6 0,8 1,4 5,3 2 1 9 5 W 1022,5 24 0 0,0
15.01.2017 18:00:00 -0,1 -1,2 -3,0 0,9 1,4 5,3 2 1 6 4 W 1022,2 19 0 0,0
15.01.2017 17:00:00 1,0 -0,6 -2,2 1,2 1,3 5,3 4 2 9 5 OZO 1021,8 26 0 0,0
15.01.2017 16:00:00 2,8 -0,8 1,6 1,5 1,3 5,3 5 3 9 5 ZZW 1021,4 48 1 0,0
15.01.2017 15:00:00 2,5 -0,4 2,1 1,3 1,3 5,3 6 3 17 9 N 1021,3 46 0 0,0
15.01.2017 14:00:00 2,5 -1,1 2,9 0,9 1,3 5,3 12 6 25 14 NNW 1021,4 39 9 0,0
15.01.2017 13:00:00 3,2 -1,8 4,1 0,6 1,3 5,3 11 6 22 12 NW 1021,4 38 54 0,0
15.01.2017 12:00:00 2,3 -1,2 3,2 0,6 1,3 5,3 13 7 23 12 NNW 1021,5 29 50 0,0
15.01.2017 11:00:00 1,0 -0,5 1,0 0,6 1,3 5,3 7 4 16 9 NNW 1021,5 9 9 0,3
15.01.2017 10:00:00 1,0 -0,7 0,8 0,6 1,3 5,3 10 6 17 9 NW 1021,3 2,9 12 0,1
15.01.2017 09:00:00 0,9 -0,7 -0,4 0,6 1,3 5,3 6 4 20 11 NW 1020,8 20 0 0,0
15.01.2017 08:00:00 1,3 -1,0 0,1 0,6 1,3 5,3 11 6 21 12 NW 1020,1 36 0 0,1
15.01.2017 07:00:00 1,5 -1,3 0,3 0,6 1,3 5,3 12 7 22 12 NW 1019,5 42 0 0,1
15.01.2017 06:00:00 1,2 -0,8 0,2 0,6 1,4 5,3 8 5 25 14 NNW 1018,8 17 0 0,2
15.01.2017 05:00:00 1,5 -1,2 0,6 0,6 1,4 5,3 11 6 27 15 NNW 1018,5 3,0 0 0,1
15.01.2017 04:00:00 1,8 -1,3 0,2 0,6 1,4 5,4 11 6 23 12 NW 1018,0 70 0 0,0
15.01.2017 03:00:00 1,9 -1,0 0,6 0,6 1,4 5,4 7 4 19 10 NNW 1017,9 70 0 0,0
15.01.2017 02:00:00 1,8 -0,9 0,5 0,7 1,4 5,4 9 5 25 13 NNW 1017,5 70 0 0,0
15.01.2017 01:00:00 1,7 -0,7 0,5 0,7 1,4 5,4 10 5 24 13 NNW 1017,1 60 0 0,0

tt = temperatuur
td = dauwpunt
tt 5cm = temperatuur 5cm
tt -5cm = temperatuur -5cm
tt -20cm = temperatuur -20cm
tt -100cm = temperatuur -100cm
ff = windsnelheid
fx = windstoten
dd = windrichting
ppp = luchtdruk
vv = zicht
sd = Zonneschijnduur
rr = neerslag

Weerstations in de omgeving